Weather History for Port Angeles, WA

Change the Weather History Date:

Wednesday, April 23, 2014

  Actual Average Record
Temperature  
Mean Temperature 46 °F -  
Max Temperature 53 °F 56 °F 68 °F (1979)
Min Temperature 39 °F 41 °F 32 °F (1986)
Degree Days  
Heating Degree Days 20    
Moisture  
Dew Point 41 °F    
Average Humidity 83    
Maximum Humidity 97    
Minimum Humidity 66    
Precipitation  
Precipitation 0.13 in - - ()
Sea Level Pressure  
Sea Level Pressure 29.79 in    
Wind  
Wind Speed 2 mph (ENE)    
Max Wind Speed 8 mph    
Max Gust Speed -    
Visibility 9 miles    
Events Rain    
Averages and records for this station are not official NWS values.
T = Trace of Precipitation, MM = Missing Value Source: NWS Daily Summary

Daily Weather History Graph

Daily Weather History Graph

Search for Another Location

Airport:

Trip Planner

Search our weather history database for the weather conditions in past years. The results will help you decide how hot, cold, wet, or windy it might be!

Date:

Astronomy

Apr. 23, 2014 Rise Set
Actual Time 6:09 AM PDT 8:16 PM PDT
Civil Twilight 5:35 AM PDT 8:50 PM PDT
Nautical Twilight 4:53 AM PDT 9:32 PM PDT
Astronomical Twilight 4:07 AM PDT 10:19 PM PDT
Moon 3:12 AM PDT (4/23) 2:04 PM PDT (4/23)
Length of Visible Light 15h 14m
Length of Day
14h 07m
Waning Crescent, 34% of the Moon is Illuminated
Apr 23
Waning Crescent
Apr 28
New
May 6
First Quarter
May 14
Full
May 21
Last Quarter

Hourly Weather History & Observations

Time (PDT) Temp. Windchill Dew Point Humidity Pressure Visibility Wind Dir Wind Speed Gust Speed Precip Events Conditions
12:12 AM 39.9 °F - 37.9 °F 93% 29.83 in 1.5 mi Calm Calm - N/A   Mostly Cloudy
12:21 AM 41.0 °F - 39.0 °F 93% 29.83 in 3.0 mi Calm Calm - N/A   Mostly Cloudy
12:53 AM 39.9 °F 37.8 °F 37.9 °F 93% 29.84 in 10.0 mi WSW 3.5 mph - N/A   Mostly Cloudy
1:53 AM 43.0 °F 40.3 °F 39.9 °F 89% 29.83 in 10.0 mi ESE 4.6 mph - 0.02 in Rain Light Rain
2:53 AM 41.0 °F - 39.0 °F 93% 29.84 in 10.0 mi Calm Calm - 0.00 in   Mostly Cloudy
3:53 AM 41.0 °F 36.4 °F 39.0 °F 93% 29.85 in 10.0 mi SW 6.9 mph - N/A   Mostly Cloudy
4:53 AM 39.9 °F - 37.9 °F 93% 29.86 in 10.0 mi Calm Calm - N/A   Overcast
5:53 AM 39.9 °F 37.8 °F 37.9 °F 93% 29.86 in 10.0 mi SSE 3.5 mph - N/A   Overcast
6:53 AM 39.9 °F - 39.0 °F 97% 29.86 in 10.0 mi Calm Calm - N/A   Mostly Cloudy
7:53 AM 45.0 °F - 41.0 °F 86% 29.86 in 10.0 mi Calm Calm - N/A   Partly Cloudy
8:53 AM 48.0 °F - 39.9 °F 74% 29.86 in 10.0 mi North 3.5 mph - N/A   Overcast
9:53 AM 50.0 °F - 42.1 °F 74% 29.86 in 10.0 mi NE 5.8 mph - N/A   Overcast
10:53 AM 50.0 °F - 42.1 °F 74% 29.86 in 10.0 mi ENE 8.1 mph - N/A   Clear
11:53 AM 50.0 °F - 43.0 °F 77% 29.87 in 10.0 mi East 6.9 mph - N/A   Clear
12:53 PM 51.1 °F - 39.9 °F 66% 29.86 in 10.0 mi NE 5.8 mph - N/A   Clear
1:53 PM 51.1 °F - 41.0 °F 68% 29.85 in 10.0 mi NNE 5.8 mph - N/A   Clear
2:53 PM 52.0 °F - 41.0 °F 66% 29.83 in 10.0 mi Variable 4.6 mph - N/A   Clear
3:53 PM 52.0 °F - 41.0 °F 66% 29.81 in 10.0 mi Variable 3.5 mph - N/A   Overcast
4:53 PM 52.0 °F - 41.0 °F 66% 29.77 in 10.0 mi Calm Calm - N/A   Overcast
5:53 PM 51.1 °F - 42.1 °F 71% 29.74 in 10.0 mi Calm Calm - N/A   Overcast
6:53 PM 50.0 °F - 43.0 °F 77% 29.71 in 10.0 mi Calm Calm - 0.00 in Rain Light Rain
7:53 PM 48.9 °F - 46.0 °F 90% 29.67 in 10.0 mi Calm Calm - 0.01 in Rain Light Rain
8:53 PM 48.0 °F - 44.1 °F 86% 29.64 in 10.0 mi NNE 3.5 mph - 0.00 in   Overcast
9:53 PM 46.9 °F - 45.0 °F 93% 29.62 in 10.0 mi WSW 4.6 mph - 0.04 in Rain Light Rain
10:53 PM 46.9 °F - 44.1 °F 90% 29.60 in 10.0 mi Calm Calm - 0.02 in Rain Light Rain
11:53 PM 46.9 °F - 45.0 °F 93% 29.56 in 10.0 mi SSW 4.6 mph - 0.04 in Rain Light Rain